OE5WWO Weather Reports


time (UTC)temp
F
wind
direction
speed
knots
gust
knots
rain 1hr
in
rain 24hr
in
rain mn
in
humidity
%
barometer
mb
20260507224040 52 314 0.9 2.6 0.00 0.00 0.00 77 1017.2
20260507223540 52 0 0.0 2.6 0.00 0.00 0.00 78 1017.2
20260507223059 51 308 0.0 2.6 0.00 0.00 0.00 78 1017.2
20260507222540 51 0 0.0 2.6 0.00 0.00 0.00 78 1017.2
20260507222043 51 0 0.9 2.6 0.00 0.00 0.00 78 1017.2
20260507221554 51 0 0.0 1.7 0.00 0.00 0.00 78 1017.1
20260507221040 52 0 0.0 0.0 0.00 0.00 0.00 77 1017.1
20260507220539 52 0 0.0 0.0 0.00 0.00 0.00 77 1017.2
20260507220052 52 0 0.0 0.0 0.00 0.00 0.00 77 1017.2
20260507215540 52 0 0.0 0.0 0.00 0.00 0.00 76 1017.2
20260507215041 52 0 0.0 0.0 0.00 0.00 0.00 76 1017.2
20260507214553 52 0 0.0 0.9 0.00 0.00 0.00 76 1017.0
20260507214042 52 0 0.0 1.7 0.00 0.00 0.00 76 1017.0
20260507213544 53 331 0.0 2.6 0.00 0.00 0.00 76 1017.0
20260507213056 53 331 0.0 2.6 0.00 0.00 0.00 75 1017.0
20260507212544 53 0 0.0 2.6 0.00 0.00 0.00 75 1016.8
20260507212041 53 0 0.0 1.7 0.00 0.00 0.00 74 1016.7
20260507211557 53 0 0.0 1.7 0.00 0.00 0.00 74 1016.7
20260507211040 54 0 0.0 1.7 0.00 0.00 0.00 73 1016.7
20260507210544 54 0 0.0 0.9 0.00 0.00 0.00 72 1016.7
20260507210107 54 0 0.0 1.7 0.00 0.00 0.00 72 1016.6
20260507205541 55 0 0.0 1.7 0.00 0.00 0.00 72 1016.5
20260507205038 55 0 0.0 1.7 0.00 0.00 0.00 71 1016.4
20260507204548 55 0 0.0 0.9 0.00 0.00 0.00 71 1016.4
20260507204038 55 0 0.0 0.9 0.00 0.00 0.00 71 1016.4
20260507203538 55 0 0.0 0.9 0.00 0.00 0.00 70 1016.4
20260507203053 55 0 0.0 2.6 0.00 0.00 0.00 70 1016.4
20260507202538 55 0 0.0 2.6 0.00 0.00 0.00 70 1016.4
20260507202038 56 0 0.9 2.6 0.00 0.00 0.00 69 1016.4
20260507201552 56 0 0.0 1.7 0.00 0.00 0.00 68 1016.3
20260507201039 56 0 0.0 1.7 0.00 0.00 0.00 68 1016.3
20260507200538 56 0 0.0 0.9 0.00 0.00 0.00 67 1016.1
20260507200055 57 0 0.0 0.9 0.00 0.00 0.00 67 1016.0
20260507195543 57 0 0.0 1.7 0.00 0.00 0.00 66 1016.1
20260507195036 57 0 0.0 2.6 0.00 0.00 0.00 66 1016.0
20260507194556 57 0 0.0 3.5 0.00 0.00 0.00 66 1015.9
20260507194039 58 0 0.9 3.5 0.00 0.00 0.00 65 1015.8
20260507193537 58 0 0.9 3.5 0.00 0.00 0.00 65 1015.8
20260507193052 58 0 0.0 2.6 0.00 0.00 0.00 65 1015.6
20260507192538 58 317 0.9 3.5 0.00 0.00 0.00 65 1015.4
20260507192036 58 0 0.9 3.5 0.00 0.00 0.00 64 1015.2
20260507191553 58 331 0.0 7.0 0.00 0.00 0.00 65 1015.2
20260507191036 59 0 0.9 7.0 0.00 0.00 0.00 64 1015.2
20260507190536 59 324 1.7 7.0 0.00 0.00 0.00 64 1015.1
20260507190057 59 0 0.9 7.0 0.00 0.00 0.00 64 1015.1
20260507185536 59 0 0.9 4.3 0.00 0.00 0.00 64 1015.0
20260507185038 59 265 0.0 4.3 0.00 0.00 0.00 64 1014.8
20260507184551 59 0 0.0 4.3 0.00 0.00 0.00 63 1014.7
20260507184039 60 285 0.0 4.3 0.00 0.00 0.00 63 1014.7
20260507183538 60 313 1.7 4.3 0.00 0.00 0.00 62 1014.7
20260507183109 60 291 0.0 3.5 0.00 0.00 0.00 62 1014.6
20260507182539 60 250 0.0 3.5 0.00 0.00 0.00 62 1014.5
20260507182039 60 267 0.9 3.5 0.00 0.00 0.00 61 1014.4
20260507181553 61 174 0.9 4.3 0.00 0.00 0.00 60 1014.3
20260507181035 61 0 0.0 10.4 0.00 0.00 0.00 60 1014.3
20260507180540 61 286 1.7 10.4 0.00 0.00 0.00 59 1014.2
20260507180054 61 327 0.9 5.2 0.00 0.00 0.00 59 1014.1
20260507175538 61 225 0.9 5.2 0.00 0.00 0.00 59 1014.1
20260507175037 62 288 0.0 5.2 0.00 0.00 0.00 59 1014.0
20260507174601 62 218 1.7 7.8 0.00 0.00 0.00 60 1013.9
20260507174042 62 245 1.7 7.8 0.00 0.00 0.00 59 1013.7
20260507173537 62 251 0.9 7.0 0.00 0.00 0.00 59 1013.7
20260507173053 62 0 0.9 7.0 0.00 0.00 0.00 59 1013.6
20260507172540 62 315 1.7 7.0 0.00 0.00 0.00 58 1013.6
20260507172039 62 0 0.9 6.1 0.00 0.00 0.00 58 1013.6
20260507171552 62 200 1.7 6.1 0.00 0.00 0.00 58 1013.5
20260507171041 62 237 0.9 5.2 0.00 0.00 0.00 58 1013.6
20260507170540 62 256 1.7 5.2 0.00 0.00 0.00 57 1013.7
20260507170056 62 280 0.9 3.5 0.00 0.00 0.00 60 1013.6
20260507165540 62 0 0.9 5.2 0.00 0.00 0.00 60 1013.6
20260507165040 63 299 0.0 7.8 0.00 0.00 0.00 60 1013.6
20260507164627 63 344 3.5 7.8 0.00 0.00 0.00 59 1013.7
20260507164041 63 270 0.9 4.3 0.00 0.00 0.00 59 1013.7
20260507163544 63 0 0.0 4.3 0.00 0.00 0.00 60 1013.7
20260507163056 63 18 1.7 7.0 0.00 0.00 0.00 59 1013.7
20260507162540 64 275 0.9 7.0 0.00 0.00 0.00 58 1013.6
20260507162040 64 229 1.7 11.3 0.00 0.00 0.00 58 1013.6
20260507161558 64 0 0.9 11.3 0.00 0.00 0.00 57 1013.5
20260507161044 64 0 0.9 9.6 0.00 0.00 0.00 56 1013.5
20260507160541 64 206 3.5 9.6 0.00 0.00 0.00 54 1013.5
20260507160049 64 211 1.7 6.1 0.00 0.00 0.00 56 1013.5
20260507155540 64 261 1.7 7.0 0.00 0.00 0.00 57 1013.5
20260507155040 64 225 2.6 7.0 0.00 0.00 0.00 57 1013.5
20260507154553 64 219 0.9 7.0 0.00 0.00 0.00 58 1013.5
20260507154041 64 195 0.9 5.2 0.00 0.00 0.00 57 1013.5
20260507153544 63 331 0.9 7.0 0.00 0.00 0.00 58 1013.4
20260507153045 63 320 0.9 7.0 0.00 0.00 0.00 58 1013.5
20260507152543 63 190 1.7 7.0 0.00 0.00 0.00 58 1013.5
20260507152044 63 0 2.6 7.0 0.00 0.00 0.00 57 1013.4
20260507151550 63 223 1.7 7.0 0.00 0.00 0.00 57 1013.4
20260507151044 63 331 0.9 7.0 0.00 0.00 0.00 57 1013.4
20260507150540 63 270 1.7 7.0 0.00 0.00 0.00 57 1013.3
20260507150051 63 218 1.7 8.7 0.00 0.00 0.00 57 1013.3
20260507145540 63 344 1.7 8.7 0.00 0.00 0.00 56 1013.3
20260507145041 64 267 1.7 7.0 0.00 0.00 0.00 57 1013.2
20260507144550 64 224 1.7 7.0 0.00 0.00 0.00 56 1013.2
20260507144041 64 333 1.7 7.0 0.00 0.00 0.00 56 1013.2
20260507143541 64 286 2.6 7.8 0.00 0.00 0.00 55 1013.2
20260507143114 64 283 2.6 7.8 0.00 0.00 0.00 54 1013.3
20260507142540 64 290 0.9 9.6 0.00 0.00 0.00 55 1013.3
20260507142040 64 0 1.7 9.6 0.00 0.00 0.00 55 1013.3
20260507141558 64 235 1.7 7.0 0.00 0.00 0.00 55 1013.3
20260507141040 64 249 0.9 7.8 0.00 0.00 0.00 55 1013.3
20260507140540 64 294 2.6 7.8 0.00 0.00 0.00 54 1013.3
20260507140048 65 271 0.9 7.0 0.00 0.00 0.00 54 1013.3
20260507135540 65 261 1.7 7.0 0.00 0.00 0.00 54 1013.2
20260507135040 65 263 1.7 7.0 0.00 0.00 0.00 53 1013.2
20260507134552 65 297 0.9 7.0 0.00 0.00 0.00 53 1013.2
20260507134040 66 164 0.9 8.7 0.00 0.00 0.00 53 1013.1
20260507133540 66 352 2.6 11.3 0.00 0.00 0.00 52 1013.1
20260507133053 66 226 4.3 11.3 0.00 0.00 0.00 51 1013.0
20260507132540 67 200 3.5 9.6 0.00 0.00 0.00 50 1013.1
20260507132040 67 258 1.7 10.4 0.00 0.00 0.00 52 1013.1
20260507131600 66 305 1.7 10.4 0.00 0.00 0.00 51 1013.0
20260507131040 67 5 3.5 10.4 0.00 0.00 0.00 49 1013.2
20260507130543 68 189 1.7 7.8 0.00 0.00 0.00 51 1013.2
20260507130056 67 299 2.6 7.8 0.00 0.00 0.00 51 1013.2
20260507125541 67 245 0.9 8.7 0.00 0.00 0.00 50 1013.2
20260507125041 67 319 2.6 9.6 0.00 0.00 0.00 52 1013.0
20260507124557 67 198 3.5 13.0 0.00 0.00 0.00 52 1013.0
20260507124040 67 264 2.6 13.0 0.00 0.00 0.00 51 1013.1
20260507123540 67 327 5.2 13.0 0.00 0.00 0.00 50 1013.1
20260507123047 67 202 3.5 9.6 0.00 0.00 0.00 50 1013.0
20260507122539 66 195 3.5 9.6 0.00 0.00 0.00 52 1012.9
20260507122040 66 252 1.7 7.0 0.00 0.00 0.00 54 1013.0
20260507121553 65 352 2.6 8.7 0.00 0.00 0.00 55 1013.1
20260507121041 65 288 2.6 8.7 0.00 0.00 0.00 54 1013.0
20260507120539 65 231 1.7 9.6 0.00 0.00 0.00 54 1013.1
20260507120054 65 291 1.7 9.6 0.00 0.00 0.00 53 1013.0
20260507115540 64 195 1.7 9.6 0.00 0.00 0.00 55 1013.1
20260507115043 64 273 2.6 11.3 0.00 0.00 0.00 55 1013.2
20260507114605 64 240 4.3 11.3 0.00 0.00 0.00 54 1013.3
20260507114040 64 260 1.7 8.7 0.00 0.00 0.00 55 1013.3
20260507113540 64 232 1.7 8.7 0.00 0.00 0.00 56 1013.3
20260507113105 65 284 3.5 8.7 0.00 0.00 0.00 54 1013.4
20260507112541 64 119 2.6 9.6 0.00 0.00 0.00 56 1013.4
20260507112042 64 288 1.7 9.6 0.00 0.00 0.00 56 1013.3
20260507111553 64 257 1.7 7.0 0.00 0.00 0.00 54 1013.5
20260507111042 64 5 0.9 8.7 0.00 0.00 0.00 55 1013.4
20260507110540 65 250 1.7 8.7 0.00 0.00 0.00 54 1013.3
20260507110049 65 214 2.6 11.3 0.00 0.00 0.00 53 1013.4
20260507105540 65 252 3.5 11.3 0.00 0.00 0.00 54 1013.5
20260507105040 65 180 3.5 11.3 0.00 0.00 0.00 53 1013.4
20260507104548 66 254 2.6 10.4 0.00 0.00 0.00 54 1013.4
20260507104042 66 209 3.5 10.4 0.00 0.00 0.00 53 1013.5
20260507103540 65 154 1.7 8.7 0.00 0.00 0.00 54 1013.5
20260507103051 65 192 3.5 13.0 0.00 0.00 0.00 54 1013.5
20260507102543 64 275 2.6 13.0 0.00 0.00 0.00 57 1013.5
20260507102040 64 259 3.5 8.7 0.00 0.00 0.00 55 1013.7
20260507101548 63 246 2.6 8.7 0.00 0.00 0.00 57 1013.7
20260507101039 63 221 2.6 8.7 0.00 0.00 0.00 59 1013.7
20260507100540 63 284 1.7 10.4 0.00 0.00 0.00 57 1013.7
20260507100056 63 323 2.6 13.0 0.00 0.00 0.00 57 1013.7
20260507095541 63 289 3.5 13.0 0.00 0.00 0.00 56 1013.7
20260507095036 63 179 3.5 11.3 0.00 0.00 0.00 55 1013.6
20260507094549 63 207 3.5 13.9 0.00 0.00 0.00 57 1013.6
20260507094042 63 234 4.3 13.9 0.00 0.00 0.00 57 1013.7
20260507093539 63 198 3.5 13.0 0.00 0.00 0.00 58 1013.6
20260507093052 62 265 5.2 13.0 0.00 0.00 0.00 57 1013.7
20260507092541 62 208 3.5 7.8 0.00 0.00 0.00 59 1013.6
20260507092042 62 304 2.6 12.2 0.00 0.00 0.00 59 1013.6
20260507091549 62 202 3.5 12.2 0.00 0.00 0.00 60 1013.5
20260507091040 61 259 3.5 12.2 0.00 0.00 0.00 60 1013.6
20260507090541 61 274 3.5 12.2 0.00 0.00 0.00 59 1013.5
20260507090050 61 217 2.6 9.6 0.00 0.00 0.00 61 1013.5
20260507085540 61 277 2.6 12.2 0.00 0.00 0.00 61 1013.5
20260507085039 61 290 2.6 12.2 0.00 0.00 0.00 61 1013.4
20260507084600 62 343 3.5 9.6 0.00 0.00 0.00 60 1013.4
20260507084039 61 286 1.7 10.4 0.00 0.00 0.00 62 1013.3
20260507083542 61 328 2.6 10.4 0.00 0.00 0.00 62 1013.3
20260507083053 61 284 3.5 13.9 0.00 0.00 0.00 62 1013.3
20260507082539 61 198 3.5 13.9 0.00 0.00 0.00 60 1013.3
20260507082039 61 321 2.6 8.7 0.00 0.00 0.00 63 1013.2
20260507081558 61 213 1.7 10.4 0.00 0.00 0.00 64 1013.1
20260507081039 61 213 2.6 10.4 0.00 0.00 0.00 62 1013.1
20260507080540 61 246 1.7 9.6 0.00 0.00 0.00 64 1013.1
20260507080052 60 279 1.7 8.7 0.00 0.00 0.00 65 1013.1
20260507075540 60 344 1.7 8.7 0.00 0.00 0.00 66 1013.0
20260507075042 59 313 1.7 10.4 0.00 0.00 0.00 64 1013.0
20260507074556 59 350 2.6 10.4 0.00 0.00 0.00 65 1013.0
20260507074043 60 188 3.5 10.4 0.00 0.00 0.00 64 1013.1
20260507073540 60 5 2.6 7.0 0.00 0.00 0.00 65 1012.9
20260507073054 60 0 1.7 6.1 0.00 0.00 0.00 66 1012.9
20260507072540 59 243 2.6 5.2 0.00 0.00 0.00 66 1012.9
20260507072042 59 238 1.7 7.8 0.00 0.00 0.00 66 1013.0
20260507071550 59 199 2.6 8.7 0.00 0.00 0.00 66 1013.0
20260507071040 59 0 0.9 8.7 0.00 0.00 0.00 68 1013.0
20260507070540 59 173 1.7 8.7 0.00 0.00 0.00 68 1013.0
20260507070051 58 317 2.6 7.8 0.00 0.00 0.00 69 1012.9
20260507065540 58 274 1.7 7.0 0.00 0.00 0.00 70 1013.0
20260507065039 58 273 1.7 7.0 0.00 0.00 0.00 69 1012.9
20260507064555 59 290 1.7 6.1 0.00 0.00 0.00 69 1012.9
20260507064043 59 223 1.7 6.1 0.00 0.00 0.00 69 1013.0
20260507063540 58 323 1.7 6.1 0.00 0.00 0.00 69 1013.0
20260507063056 58 198 1.7 5.2 0.00 0.00 0.00 69 1013.1
20260507062540 58 293 0.9 5.2 0.00 0.00 0.00 71 1013.1
20260507062040 58 277 0.9 6.1 0.00 0.00 0.00 69 1013.0
20260507061552 57 291 0.9 6.1 0.00 0.00 0.00 72 1013.0
20260507061040 56 226 0.9 2.6 0.00 0.00 0.00 74 1013.0
20260507060538 56 283 0.9 3.5 0.00 0.00 0.00 73 1013.0
20260507060059 56 317 0.9 3.5 0.00 0.00 0.00 75 1013.0
20260507055540 55 279 0.9 3.5 0.00 0.00 0.00 76 1012.9
20260507055039 55 325 0.9 3.5 0.00 0.00 0.00 77 1012.9
20260507054554 54 315 0.9 2.6 0.00 0.00 0.00 77 1012.9
20260507054042 54 274 0.0 2.6 0.00 0.00 0.00 77 1012.9
20260507053542 54 0 0.0 2.6 0.00 0.00 0.00 78 1012.9
20260507053052 54 300 0.0 2.6 0.00 0.00 0.00 78 1012.8
20260507052544 54 311 0.0 3.5 0.00 0.00 0.00 80 1012.8
20260507052040 53 322 0.0 4.3 0.00 0.00 0.00 80 1012.7
20260507051553 53 324 0.0 4.3 0.00 0.00 0.00 80 1012.5
20260507051041 53 0 0.9 2.6 0.00 0.00 0.00 80 1012.5
20260507050540 53 0 0.0 1.7 0.00 0.00 0.00 81 1012.5
20260507050053 53 286 0.0 1.7 0.00 0.00 0.00 81 1012.4
20260507045542 52 0 0.0 1.7 0.00 0.00 0.00 81 1012.4
20260507045039 52 0 0.0 1.7 0.00 0.00 0.00 81 1012.3
20260507044605 52 273 0.0 1.7 0.00 0.00 0.00 81 1012.2
20260507044040 52 0 0.0 1.7 0.00 0.00 0.00 81 1012.2
20260507043540 52 313 0.0 1.7 0.00 0.00 0.00 81 1012.1
20260507043102 52 309 0.0 1.7 0.00 0.00 0.00 81 1012.1
20260507042541 52 0 0.0 1.7 0.00 0.00 0.00 81 1012.1
20260507042044 52 0 0.0 1.7 0.00 0.00 0.00 81 1012.0
20260507041557 52 0 0.0 2.6 0.00 0.00 0.00 81 1011.9
20260507041041 52 0 0.0 2.6 0.00 0.00 0.00 81 1011.8
20260507040540 52 304 0.0 2.6 0.00 0.00 0.00 80 1011.8
20260507040054 52 0 0.0 0.9 0.00 0.00 0.00 80 1011.8
20260507035539 52 0 0.0 0.9 0.00 0.00 0.00 80 1011.8
20260507035039 52 0 0.0 0.9 0.00 0.00 0.00 79 1011.7
20260507034554 52 0 0.0 1.7 0.00 0.00 0.00 79 1011.6
20260507034040 52 0 0.0 1.7 0.00 0.00 0.00 79 1011.5
20260507033540 52 0 0.0 1.7 0.00 0.00 0.00 79 1011.6
20260507033052 53 0 0.0 1.7 0.00 0.00 0.00 79 1011.5
20260507032540 53 0 0.0 1.7 0.00 0.00 0.00 79 1011.5
20260507032039 53 0 0.0 1.7 0.00 0.00 0.00 79 1011.5
20260507031554 53 0 0.0 2.6 0.00 0.00 0.00 79 1011.5
20260507031039 53 0 0.0 2.6 0.00 0.00 0.00 79 1011.4
20260507030539 53 269 0.0 2.6 0.00 0.00 0.00 79 1011.3
20260507030049 53 302 0.0 2.6 0.00 0.00 0.00 79 1011.3
20260507025540 53 211 0.0 3.5 0.00 0.00 0.00 79 1011.2
20260507025040 53 0 0.0 3.5 0.00 0.00 0.00 80 1011.2
20260507024553 53 318 0.0 2.6 0.00 0.00 0.00 80 1011.2
20260507024040 53 242 0.0 2.6 0.00 0.00 0.00 80 1011.2
20260507023540 53 0 0.0 5.2 0.00 0.00 0.00 80 1011.2
20260507023103 53 215 0.0 5.2 0.00 0.00 0.00 80 1011.2
20260507022540 53 0 0.0 5.2 0.00 0.00 0.00 80 1011.1
20260507022040 53 0 1.7 5.2 0.00 0.00 0.00 80 1011.1
20260507021550 53 0 0.0 5.2 0.00 0.00 0.00 80 1011.1
20260507021040 53 0 0.0 5.2 0.00 0.00 0.00 80 1011.2
20260507020540 53 0 0.0 3.5 0.00 0.00 0.00 80 1011.2
20260507020059 53 0 0.0 1.7 0.00 0.00 0.00 80 1011.1
20260507015539 53 263 0.0 4.3 0.00 0.00 0.00 80 1011.1
20260507015040 53 0 0.0 4.3 0.00 0.00 0.00 80 1011.1
20260507014546 54 0 0.0 4.3 0.00 0.00 0.00 80 1011.1
20260507014040 54 0 0.0 2.6 0.00 0.00 0.00 80 1011.0
20260507013541 54 0 0.0 2.6 0.00 0.00 0.00 79 1011.0
20260507013047 54 312 0.0 2.6 0.00 0.00 0.00 80 1011.0
20260507012546 54 0 0.0 0.0 0.00 0.00 0.00 80 1011.0
20260507012040 54 0 0.0 0.9 0.00 0.00 0.00 80 1011.0
20260507011548 54 0 0.0 1.7 0.00 0.00 0.00 80 1011.0
20260507011039 54 0 0.0 5.2 0.00 0.00 0.00 80 1011.0
20260507010540 54 0 0.0 5.2 0.00 0.00 0.00 80 1011.0
20260507010051 54 144 1.7 5.2 0.00 0.00 0.00 80 1010.9
20260507005540 54 0 0.9 3.5 0.00 0.00 0.00 80 1010.9
20260507005041 54 257 0.0 3.5 0.00 0.00 0.00 80 1010.9
20260507004551 54 0 0.0 5.2 0.00 0.00 0.00 80 1010.9
20260507004039 54 251 0.9 5.2 0.00 0.00 0.00 80 1010.8
20260507003541 54 254 0.9 4.3 0.00 0.00 0.00 80 1010.7
20260507003106 54 213 0.9 4.3 0.00 0.00 0.00 80 1010.7
20260507002545 54 233 0.9 4.3 0.00 0.00 0.00 79 1010.7
20260507002042 54 307 0.9 4.3 0.00 0.00 0.00 79 1010.7
20260507001609 55 0 0.0 4.3 0.00 0.00 0.00 79 1010.6
20260507001041 55 293 0.9 6.1 0.00 0.00 0.00 79 1010.7
20260507000543 55 291 0.9 6.1 0.00 0.00 0.00 80 1010.8
20260507000047 55 232 0.9 7.0 0.00 0.00 0.00 80 1010.8
20260506235540 55 0 1.7 7.0 0.00 0.00 0.00 79 1010.8
20260506235039 55 0 0.0 3.5 0.00 0.00 0.00 79 1010.8
20260506234551 55 286 0.9 5.2 0.00 0.00 0.00 79 1010.8
20260506234040 55 331 1.7 5.2 0.00 0.00 0.00 79 1010.8
20260506233540 55 0 0.0 2.6 0.00 0.00 0.00 79 1010.7
20260506233052 55 240 0.0 5.2 0.00 0.00 0.00 79 1010.7
20260506232539 55 202 0.0 5.2 0.00 0.00 0.00 79 1010.7
20260506232040 55 157 0.9 5.2 0.00 0.00 0.00 79 1010.7
20260506231554 55 0 0.9 5.2 0.00 0.00 0.00 79 1010.6
20260506231040 55 280 0.9 4.3 0.00 0.00 0.00 79 1010.7
20260506230540 55 269 0.0 8.7 0.00 0.00 0.00 79 1010.7
20260506230107 55 219 0.0 8.7 0.00 0.00 0.00 79 1010.6
20260506225557 55 264 1.7 11.3 0.00 0.00 0.00 79 1010.6
20260506225040 55 221 1.7 11.3 0.00 0.00 0.00 78 1010.3
20260506224548 56 288 2.6 8.7 0.00 0.00 0.00 78 1010.2